[Iaude] MPEC R129: 2016 RM20 [a=1.16,e=0.16,i=9.4,H=26.1]

mpec at mpc.eps.harvard.edu mpec at mpc.eps.harvard.edu
Sat Sep 10 22:27:17 EDT 2016


M.P.E.C. 2016-R129                               Issued 2016 Sept. 11, 02:24 UT
 
     The Minor Planet Electronic Circulars contain information on unusual
         minor planets and routine data on comets.  They are published
    on behalf of Division F of the International Astronomical Union by the
          Minor Planet Center, Smithsonian Astrophysical Observatory,
                          Cambridge, MA 02138, U.S.A.

             Prepared using the Tamkin Foundation Computer Network

                              MPC at CFA.HARVARD.EDU
            URL http://www.minorplanetcenter.net/    ISSN 1523-6714


                                   2016 RM20
 
Observations:
     K16R20M* C2016 09 09.24163 21 47 34.69 +26 24 45.0          20.7 VqER129G96
     K16R20M  C2016 09 09.24637 21 47 35.37 +26 24 19.8          21.0 VqER129G96
     K16R20M  C2016 09 09.25111 21 47 36.08 +26 23 52.9          20.4 VqER129G96
     K16R20M  C2016 09 09.25586 21 47 36.78 +26 23 27.3          21.1 VqER129G96
     K16R20M  C2016 09 09.29284 21 47 42.15 +26 20 00.7          20.8 VqER129G96
     K16R20M  C2016 09 09.29385 21 47 42.36 +26 19 54.3                qER129G96
     K16R20M  C2016 09 09.29490 21 47 42.48 +26 19 48.9          21.5 VqER129G96
     K16R20M  C2016 09 09.29589 21 47 42.66 +26 19 43.5          21.2 VqER129G96
     K16R20M  C2016 09 09.31603 21 47 45.70 +26 17 48.4          20.4 VqER129G96
     K16R20M  C2016 09 09.31643 21 47 45.81 +26 17 46.1          20.6 VqER129G96
     K16R20M  C2016 09 09.31684 21 47 45.86 +26 17 43.5          20.7 VqER129G96
     K16R20M  C2016 09 09.38248 21 47 56.70 +26 11 18.0          21.0 VqER129G96
     K16R20M  C2016 09 09.38289 21 47 56.71 +26 11 15.2          21.1 VqER129G96
     K16R20M  C2016 09 09.38330 21 47 56.87 +26 11 11.9          21.0 VqER129G96
     K16R20M KC2016 09 09.81217 21 49 57.39 +25 29 08.3          20.9 RtER129104
     K16R20M KC2016 09 09.81769 21 49 58.50 +25 28 36.4                tER129104
     K16R20M KC2016 09 09.83853 21 50 02.34 +25 26 35.1          20.4 RtER129104
     K16R20M mC2016 09 10.19187 21 51 33.31 +24 50 33.5                oER129691
     K16R20M mC2016 09 10.20227 21 51 35.14 +24 49 28.2                oER129691
     K16R20M mC2016 09 10.21267 21 51 37.00 +24 48 22.4          20.9 VoER129691
     K16R20M  C2016 09 10.21389 21 51 37.01 +24 48 12.8          20.5 VqER129G96
     K16R20M  C2016 09 10.21620 21 51 37.38 +24 47 57.8          20.7 VqER129G96
     K16R20M  C2016 09 10.21851 21 51 37.77 +24 47 43.1          20.7 VqER129G96
     K16R20M  C2016 09 10.22191 21 51 38.39 +24 47 22.3          20.4 VqER129G96
     K16R20M  C2016 09 10.25442 21 51 44.09 +24 43 50.7          20.4 VqER129G96
     K16R20M  C2016 09 10.25695 21 51 44.54 +24 43 34.4          20.6 VqER129G96
     K16R20M  C2016 09 10.25888 21 51 44.86 +24 43 22.2                qER129G96
     K16R20M  C2016 09 10.37690 21 52 07.05 +24 29 58.5          20.3 VqER129G96
     K16R20M  C2016 09 10.38663 21 52 09.15 +24 28 49.5          20.5 VqER129G96
     K16R20M  C2016 09 10.43964 21 52 21.10 +24 22 31.0          20.6 VqER129G96
     K16R20M  C2016 09 10.44008 21 52 21.24 +24 22 28.3          19.9 VqER129G96
     K16R20M  C2016 09 10.44049 21 52 21.25 +24 22 24.7          19.7 VqER129G96
     K16R20M  C2016 09 10.44091 21 52 21.35 +24 22 20.2          19.8 VqER129G96
     K16R20M KC2016 09 10.93169 21 54 55.34 +23 24 20.3                qER129J95
     K16R20M KC2016 09 10.93807 21 54 56.81 +23 23 33.7                qER129J95
     K16R20M KC2016 09 10.94604 21 54 58.61 +23 22 34.5          20.2 RqER129J95
 
Observer details:
104 San Marcello Pistoiese.  Observers P. Bacci, M. Maestripieri, M. Garozzo.
    Measurers P. Bacci, L. Tesi, G. Fagioli.  0.60-m f/4 reflector + CCD.
691 Steward Observatory, Kitt Peak.  Observer J. V. Scotti.  0.9-m f/3
    reflector + CCD.
G96 Mt. Lemmon Survey.  Observer A. R. Gibbs.  Measurers E. J. Christensen,
    D. C. Fuls, A. R. Gibbs, A. D. Grauer, J. A. Johnson, R. A. Kowalski,
    S. M. Larson, G. J. Leonard, R. G. Matheny, R. L. Seaman, F. C. Shelly.
    1.5-m reflector + 10K CCD.
J95 Great Shefford.  Observer P. Birtwhistle.  0.40-m f/6.0 Schmidt-Cassegrain
    + CCD.
 
Orbital elements:
2016 RM20                                                Earth MOID = 0.0153 AU
Epoch 2016 July 31.0 TT = JDT 2457600.5                 MPC
M 286.61541              (2000.0)            P               Q
n   0.78673675     Peri.  227.33826     +0.73988633     -0.67257468
a   1.1621167      Node   174.86544     +0.65493894     +0.71520957
e   0.1587006      Incl.    9.35259     +0.15369843     +0.19004884
P   1.25           H   26.1           G   0.15           U   6
Residuals in seconds of arc
160909 G96  0.4-  0.3-    160909 G96  0.4-  0.1-    160910 G96  0.0   0.4-
160909 G96  0.5-  0.4+    160909 G96  0.8+  1.0-    160910 G96  0.1+  0.2-
160909 G96  0.2-  0.5-    160909 104 (2.7-  0.3-)   160910 G96  0.2-  0.3+
160909 G96  0.0   0.0     160909 104 (1.7-  0.2-)   160910 G96  0.2-  0.1+
160909 G96  0.8-  0.1+    160909 104 (2.0-  0.2+)   160910 G96  0.6+  0.3-
160909 G96  0.0   0.6-    160910 691  0.6+  0.3+    160910 G96  0.4+  0.3+
160909 G96  0.5-  0.0     160910 691  0.2+  0.4+    160910 G96  0.9+  0.8+
160909 G96  0.1-  0.2+    160910 691  0.4+  0.4+    160910 G96  0.3-  0.1+
160909 G96  0.4-  0.2+    160910 G96  0.6+  0.2+    160910 G96  0.3-  1.4-
160909 G96  0.3+  0.2+    160910 G96  0.0   0.1-    160910 J95  0.5-  0.1-
160909 G96  0.1+  0.0     160910 G96  0.2-  0.1-    160910 J95  0.0   0.2+
160909 G96  0.5+  0.2+    160910 G96  0.1+  0.9+    160910 J95  0.0   0.3-

Ephemeris:
2016 RM20                a,e,i = 1.16, 0.16, 9                   q = 0.9777
Date    TT    R. A. (2000) Decl.     Delta      r     Elong.  Phase     V
2016 08 12    21 19 33.3 +34 51 56   0.1376  1.1070   130.1    44.4    23.7
...
2016 08 27    21 23 57.3 +34 56 02   0.08495 1.0699   132.9    43.8    22.6
...
2016 09 04    21 33 19.2 +31 48 53   0.05798 1.0514   136.7    41.2    21.6
...
2016 09 10    21 50 38.0 +25 11 26   0.03868 1.0384   143.7    35.0    20.6
2016 09 11    21 55 14.5 +23 17 55   0.03562 1.0363   145.7    33.2    20.3
2016 09 12    22 00 36.8 +21 01 37   0.03262 1.0342   148.0    31.1    20.1
...
2016 09 18    23 02 45.9 -08 31 30   0.01796 1.0223   168.0    11.7    18.1
...
2016 09 26    04 08 05.7 -62 37 57   0.02447 1.0082   102.5    76.1    20.7
...
2016 10 11    07 39 47.9 -54 43 39   0.06857 0.9879    79.4    96.7    23.7

A. U. Tomatic                (C) Copyright 2016 MPC           M.P.E.C. 2016-R129




More information about the Iaude mailing list